Regional Weather Roundup
Issued by NWS

Home | Current Version | Previous Version | Graphics & Text | Print | Product List | Glossary On
Versions: 1 2 3 4 5 6 7 8 9 10 11 12 13 14 15 16 17 18 19 20 21 22 23 24 25 26 27 28 29 30 31 32 33 34 35 36 37 38 39 40 41 42 43 44 45 46 47 48 49 50
000
ASUS43 KDMX 110803
RWRIA

WEATHER ROUNDUP FOR IOWA
NATIONAL WEATHER SERVICE DES MOINES IA
200 AM CST THU FEB 11 2016

NOTE: "FAIR" INDICATES FEW OR NO CLOUDS BELOW 12,000 FEET WITH NO
SIGNIFICANT WEATHER AND/OR OBSTRUCTIONS TO VISIBILITY.

* - THESE STATIONS ARE NOT NWS STATIONS...THUS NOT UNDER NWS
QUALITY CONTROL.  THEY ALSO DO NOT REPORT WEATHER SUCH
AS PRECIPITATION OR FOG.

IAZ001>003-012>014-020>022-031>034-043>046-110900-
   NORTHWEST IOWA

CITY           SKY/WX    TMP DP  RH WIND       PRES   REMARKS
CARROLL *      CLOUDY    12   7  79 NE9       30.24R WCI   0
CHEROKEE *     CLOUDY    13   5  70 NE7       30.25S WCI   3
DENISON *      CLOUDY    12   5  73 NE12      30.22R WCI  -2
LE MARS *      CLOUDY    16  10  79 NE7       30.27S WCI   6
ORANGE CITY *  CLOUDY    12   9  85 E5        30.24R WCI   4
SHELDON *      CLOUDY    12   7  79 NE9       30.23F WCI   0
SIOUX CITY     CLOUDY    18   9  68 NE7       30.27R WCI   9
SPENCER        CLOUDY    12   3  67 NE5       30.25S WCI   4
STORM LAKE *   CLOUDY    12   7  79 NE14      30.22F WCI  -3
$$

IAZ055>058-069>071-079>083-090>094-110900-
   SOUTHWEST IOWA

CITY           SKY/WX    TMP DP  RH WIND       PRES   REMARKS
ATLANTIC *     CLOUDY    14   9  79 NE9       30.23R WCI   2
AUDUBON *      CLEAR     10   5  79 N8        30.23R WCI  -1
CLARINDA *     CLOUDY    23  18  80 NE9       30.20S WCI  13
COUNCIL BLFS * MOCLDY    16  14  93 NE13      30.20R WCI   2
CRESTON *      CLOUDY    18  14  86 NE9       30.20R WCI   6
HARLAN  *      PTCLDY    12   9  85 NE13      30.26R WCI  -3
LAMONI         CLOUDY    19  14  81 NE10      30.16F WCI   7
RED OAK *      CLOUDY    21  18  86 NE9       30.22R WCI  11
SHENANDOAH *   CLOUDY    21  21 100 NE9       30.20R WCI  11
$$

IAZ047>049-059>061-072>074-084-110900-
   CENTRAL IOWA

CITY           SKY/WX    TMP DP  RH WIND       PRES   REMARKS
AMES           PTCLDY     8  -1  66 NE8       30.25R WCI  -4
ANKENY *       CLOUDY    10   1  67 NE8G14    30.26R WCI  -1
BOONE *        CLOUDY     7   0  72 N12       30.23R WCI  -9
CHARITON *     CLOUDY    14   7  73 NE6       30.20S WCI   5
DES MOINES     CLOUDY    13   4  67 NE9       30.24R WCI   1
GRINNELL*      CLOUDY     9   3  78 N7        30.23S WCI  -3
KNOXVILLE *    CLOUDY    16   5  62 NE8       30.20S WCI   5
MARSHALLTOWN   PTCLDY     4  -2  76 N8        30.24R WCI  -9
NEWTON *       CLOUDY    10   1  67 NE9       30.23S WCI  -2
PELLA *        CLOUDY    14   5  68 N3        30.25R
$$

IAZ004>006-015-016-023>025-035-036-110900-
   NORTH CENTRAL IOWA

CITY           SKY/WX    TMP DP  RH WIND       PRES   REMARKS
ALGONA *       CLOUDY     5   1  85 N5        30.25R WCI  -4
CLARION *      PTCLDY    -6 -11  77 CALM      30.27R
ESTHERVILLE    CLOUDY     6   1  80 N8        30.23S WCI  -7
FORT DODGE *   CLOUDY    10   1  67 N6        30.26R WCI   1
MASON CITY     CLOUDY    -2  -7  79 N8        30.25R WCI -17
FOREST CITY *    N/A      1  -4  78 N3        30.24S
WEBSTER CITY * CLOUDY     7   0  72 N7        30.24R WCI  -5
IOWA FALLS *     N/A      0  -6  78 NW5       30.26R WCI -10
$$

IAZ007>011-017>019-026>030-037>042-050>054-066-110900-
   NORTHEAST IOWA

CITY           SKY/WX    TMP DP  RH WIND       PRES   REMARKS
CEDAR RAPIDS   CLOUDY     7   2  80 N7        30.22S WCI  -5
CHARLES CITY * CLOUDY     1  -6  71 N7        30.25R WCI -11
CLINTON *      CLOUDY    11   4  73 N6        30.24R WCI   1
DECORAH *      CLOUDY     5  -4  66 N6        30.22S WCI  -6
DUBUQUE        CLOUDY    10   0  63 N9        30.20R WCI  -3
MONTICELLO *   CLOUDY    10   1  67 N5        30.23S HAZE    WCI   2
OELWEIN *      CLOUDY     5  -2  72 N7        30.23R WCI  -7
WATERLOO       CLOUDY     1  -5  75 NW7       30.25R WCI -12
$$

IAZ064-065-067-068-078-110900-
   EAST CENTRAL IOWA

CITY           SKY/WX    TMP DP  RH WIND       PRES   REMARKS
DAVENPORT      PTCLDY     8   2  76 N6        30.23R WCI  -2
IOWA CITY      PTCLDY    12   1  61 N9        30.26R WCI   0
MT. PLEASANT * CLOUDY    17   8  69 N7        30.23R WCI   8
MUSCATINE *    CLOUDY    12   3  67 NW3       30.26R
QUAD CITIES    PTCLDY    12   2  64 N3        30.22S
$$

IAZ062-063-075>077-085>089-095>099-110900-
   SOUTHEAST IOWA

CITY           SKY/WX    TMP DP  RH WIND       PRES   REMARKS
BURLINGTON     CLOUDY    15   6  67 N7        30.22R WCI   5
FAIRFIELD *    CLOUDY    16   5  62 N10       30.22S WCI   3
FORT MADISON * CLOUDY    16   7  67 N8        30.22S WCI   5
KEOKUK *       CLOUDY    19  12  73 VRB5      30.21S WCI  13
OSKALOOSA *    CLOUDY    14   5  67 N12       30.22F WCI   0
OTTUMWA        CLOUDY    15   4  61 N10       30.22R WCI   2
WASHINGTON *   CLOUDY    12   3  67 N9        30.25R WCI   0
$$

ABBREVIATIONS USED IN REMARKS
   TC - TEMPERATURES IN CELSIUS
  WCI - WIND CHILL INDEX
   HX - HEAT INDEX
  VSB - VISIBILITY
$$





USA.gov is the U.S. government's official web portal to all federal, state and local government web resources and services.